Location: Contre
(49.7477°N, 2.0963°E)
Time: 12:31:00
(UTC+00:00)

Cosmos 1745 Rocket - Visible Passes

Search period start: 17 September 2024 00:00
Search period end: 27 September 2024 00:00
Orbit: 952 x 997 km, 83.0° (Epoch: 16 September)

Date Brightness Start Highest point End Pass type
(mag) Time Alt. Az. Time Alt. Az. Time Alt. Az.
17 Sep 6.3 01:02:28 10° NW 01:03:23 12° WNW 01:03:23 12° WNW visible
17 Sep 5.2 21:54:44 10° N 21:59:01 33° NE 21:59:01 33° NE visible
17 Sep 5.5 23:40:08 10° NNW 23:43:39 31° NW 23:43:39 31° NW visible
18 Sep 6.0 20:36:16 10° NNE 20:39:11 13° NE 20:39:17 13° NE visible
18 Sep 4.9 22:19:41 10° N 22:23:56 42° NNE 22:23:56 42° NNE visible
19 Sep 5.9 00:05:47 10° NNW 00:08:34 21° NW 00:08:34 21° NW visible
19 Sep 5.6 21:00:17 10° NNE 21:04:12 21° NE 21:04:12 21° NE visible
19 Sep 5.0 22:44:49 10° N 22:48:51 42° NNW 22:48:51 42° NNW visible
20 Sep 6.3 00:32:00 10° NW 00:33:29 14° NW 00:33:29 14° NW visible
20 Sep 5.2 21:24:56 10° N 21:29:08 30° NE 21:29:08 30° NE visible
20 Sep 5.4 23:10:08 10° NNW 23:13:46 33° NW 23:13:46 33° NW visible
21 Sep 6.0 20:07:01 10° NNE 20:09:05 12° NE 20:09:26 11° NE visible
21 Sep 5.0 21:49:49 10° N 21:54:04 40° NNE 21:54:04 40° NNE visible
21 Sep 5.8 23:35:42 10° NNW 23:38:43 24° NW 23:38:43 24° NW visible
22 Sep 5.7 20:30:37 10° NNE 20:34:22 19° NE 20:34:22 19° NE visible
22 Sep 5.0 22:14:54 10° N 22:19:01 43° N 22:19:01 43° N visible
23 Sep 6.2 00:01:41 10° NW 00:03:39 16° NW 00:03:39 16° NW visible
23 Sep 5.3 20:55:08 10° N 20:59:19 27° NE 20:59:19 27° NE visible
23 Sep 5.3 22:40:10 10° NNW 22:43:58 36° NNW 22:43:58 36° NNW visible
24 Sep 5.0 21:19:58 10° N 21:24:17 38° NNE 21:24:17 38° NNE visible
24 Sep 5.7 23:05:39 10° NNW 23:08:55 27° NW 23:08:55 27° NW visible
25 Sep 5.7 20:01:00 10° NNE 20:04:36 16° NE 20:04:36 16° NE visible
25 Sep 4.9 21:45:01 10° N 21:49:15 44° N 21:49:15 44° N visible
25 Sep 6.1 23:31:28 10° NW 23:33:53 18° NW 23:33:53 18° NW visible
26 Sep 5.3 20:25:22 10° N 20:29:35 25° NE 20:29:35 25° NE visible
26 Sep 5.1 22:10:13 10° NNW 22:14:13 40° NNW 22:14:13 40° NNW visible
